Weather observations for the past three days for
Madison Municipal Airport
Metric (Imperial)
Date Time (cdt) Wind (kph) Vis. (km) Weather Sky Cond. Temperature (ºC) Relative Humidity Wind Chill (°C) Heat Index (°C) Pressure Precipitation (cm)
Air Dwpt 6 hour altimeter (cm) sea level (mb) 1 hr 3 hr 6 hr
Max. Min.
05 08:55 SE 31 G 41 16.09 Fair CLR 22 18 78% 76.1 0.0
05 08:35 SE 26 G 39 16.09 Fair CLR 22 17 73% 76.17 0.0
05 08:15 SE 20 G 30 16.09 Fair CLR 21 18 83% 76.25 0.0
05 07:55 E 11 16.09 A Few Clouds FEW039 FEW050 FEW090 20 19 94% 76.28 0.0
05 06:35 E 22 16.09 Light Rain SCT040 BKN050 OVC070 22 22 100% 76.28 0.0
05 06:15 N 7 14.48 Light Rain SCT035 BKN046 OVC070 21 21 100% 76.33 0.0
05 05:55 Calm 12.87 Light Rain BKN036 BKN055 OVC075 22 22 100% 76.28 0.0
05 05:35 N 11 16.09 Light Rain BKN035 BKN042 OVC055 22 22 100% 76.25 0.0
05 05:15 NE 6 16.09 Light Rain FEW030 BKN046 OVC070 22 22 100% 76.25 0.0
05 04:55 Calm 16.09 Light Rain FEW007 SCT037 BKN055 22 22 100% 76.25 0.0
05 04:35 N 13 16.09 Light Rain FEW007 BKN055 OVC120 22 22 100% 76.17 0.0
05 03:55 NE 7 16.09 Unknown Precip SCT007 BKN049 OVC070 22 22 100% 76.15 0.0
05 03:35 E 7 16.09 Overcast SCT005 BKN042 OVC075 22 22 100% 76.12 0.0
05 03:15 NE 7 16.09 Overcast SCT005 BKN048 OVC080 21 21 100% 76.12 0.0
05 02:55 E 15 16.09 Partly Cloudy FEW005 SCT060 SCT070 21 21 100% 76.02 0.0
05 02:35 E 13 16.09 Fair CLR 21 21 100% 76.07 0.0
05 02:15 E 13 16.09 Fair CLR 20 20 100% 76.07 0.0
05 01:55 E 9 16.09 Fair CLR 20 20 100% 76.1 0.0
05 01:35 Calm 16.09 Fair CLR 20 20 100% 76.12 0.0
05 01:15 Calm 16.09 Fair CLR 19 19 100% 76.1 0.0
05 00:55 E 7 16.09 Fair CLR 19 19 100% 76.1 0.0
05 00:35 NE 9 16.09 Fair CLR 19 19 100% 76.1 0.0
05 00:15 E 7 16.09 Fair CLR 20 20 100% 76.1 0.0
04 23:55 Calm 16.09 Fair CLR 21 21 100% 76.1 0.0
04 23:35 Calm 16.09 Fair CLR 20 20 100% 76.1 0.0
04 23:15 NE 9 16.09 Fair CLR 21 21 100% 76.07 0.0
04 22:55 Calm 16.09 Fair CLR 21 21 100% 76.07 0.0
04 22:35 Calm 16.09 Fair CLR 21 21 100% 76.1 0.0
04 22:15 Calm 16.09 Fair CLR 21 21 100% 76.1 0.0
04 21:55 Calm 16.09 Fair CLR 22 22 100% 76.07 0.0
04 21:35 NE 11 16.09 Fair CLR 22 22 100% 76.05 0.0
04 21:15 NE 13 16.09 Fair CLR 22 22 100% 76.02 0.0
04 20:55 NE 13 16.09 Fair CLR 23 22 94% 76 0.0
04 20:35 NE 11 16.09 Fair CLR 24 21 83% 24 76 0.0
04 20:15 NE 11 16.09 Fair CLR 25 21 79% 26 75.97 0.0
04 19:55 E 13 16.09 Fair CLR 27 20 66% 29 75.95 0.0
04 19:35 E 13 16.09 Fair CLR 28 20 62% 30 75.95 0.0
04 19:15 E 15 16.09 Fair CLR 29 20 58% 31 75.95 0.0
04 18:55 E 15 16.09 Fair CLR 30 20 55% 32 75.95 0.0
04 18:35 E 19 16.09 Fair CLR 31 20 52% 33 75.92 0.0
04 18:15 E 19 16.09 Fair CLR 32 20 49% 34 75.95 0.0
04 17:55 E 17 G 30 16.09 Fair CLR 32 19 46% 33 75.92 0.0
04 17:35 E 20 16.09 Fair CLR 33 19 44% 35 75.95 0.0
04 17:15 E 17 16.09 Fair CLR 33 19 44% 35 75.92 0.0
04 16:55 E 17 16.09 Fair CLR 34 18 39% 35 75.95 0.0
04 16:35 E 17 16.09 Fair CLR 34 18 39% 35 75.95 0.0
04 16:15 E 11 16.09 Fair CLR 35 17 34% 36 75.95 0.0
04 15:55 E 13 16.09 Fair CLR 35 17 34% 36 75.95 0.0
04 15:35 E 13 16.09 Fair CLR 35 17 34% 36 75.95 0.0
04 15:15 E 15 16.09 Fair CLR 34 17 36% 35 75.97 0.0
04 14:55 E 15 16.09 Fair CLR 34 18 39% 35 75.97 0.0
04 14:35 E 17 16.09 Fair CLR 34 18 39% 35 75.97 0.0
04 14:15 NE 15 16.09 Fair CLR 34 18 39% 35 76 0.0
04 13:55 NE 17 16.09 Fair CLR 33 17 38% 33 76 0.0
04 13:35 E 19 16.09 Fair CLR 33 17 38% 33 76 0.0
04 13:15 E 15 16.09 Fair CLR 32 19 46% 33 76 0.0
04 12:55 E 15 16.09 Fair CLR 32 18 43% 33 76 0.0
04 12:35 E 15 16.09 Fair CLR 32 19 46% 33 76.02 0.0
04 12:15 E 11 16.09 Fair CLR 31 20 52% 33 76.02 0.0
04 11:55 E 19 16.09 Fair CLR 31 19 49% 32 76 0.0
04 11:35 E 13 G 22 16.09 Fair CLR 30 21 59% 33 76 0.0
04 10:35 E 11 16.09 Fair CLR 27 24 84% 30 75.97 0.0
04 10:15 E 11 16.09 Fair CLR 26 25 94% 28 75.97 0.0
04 09:55 E 9 16.09 Fair CLR 25 25 100% 25 75.97 0.0
04 09:35 E 9 16.09 Fair CLR 24 24 100% 23 75.97 0.0
04 09:15 E 7 16.09 Fair CLR 22 22 100% 75.95 0.0
04 08:55 E 9 16.09 Fair CLR 21 21 100% 75.92 0.0
04 08:35 Calm 16.09 Fair CLR 20 20 100% 75.95 0.0
04 07:55 NE 9 0.24 Fog BKN002 18 18 100% 75.92 0.0
04 07:35 E 9 0.24 Fog BKN002 17 17 100% 75.92 0.0
04 07:15 NE 11 0.24 Fog VV000 17 17 100% 75.9 0.0
04 06:35 E 7 16.09 Fair CLR 17 17 100% 75.84 0.0
04 06:15 NE 7 16.09 Fair CLR 17 17 100% 75.82 0.0
04 05:55 Calm 8.05 Fog/Mist CLR 17 17 100% 75.82 0.0
04 05:35 N 7 0.24 Fog VV000 17 17 100% 75.79 0.0
04 05:15 Calm 0.24 Fog VV000 18 18 100% 75.79 0.0
04 04:55 Calm 16.09 Fair CLR 20 20 100% 75.79 0.0
04 04:15 Calm 16.09 Fair CLR 19 19 100% 75.79 0.0
04 03:55 Calm 16.09 Fair CLR 18 18 100% 75.79 0.0
04 03:15 Calm 16.09 Fair CLR 19 19 100% 75.74 0.0
04 02:55 NE 6 16.09 Fair CLR 19 19 100% 75.77 0.0
04 02:35 Calm 16.09 Fair CLR 19 19 100% 75.77 0.0
04 02:15 Calm 16.09 Fair CLR 19 19 100% 75.79 0.0
04 01:55 Calm 16.09 Fair CLR 20 20 100% 75.79 0.0
04 01:35 Calm 16.09 Fair CLR 19 19 100% 75.79 0.0
04 01:15 Calm 16.09 Fair CLR 20 20 100% 75.79 0.0
04 00:55 Calm 16.09 Fair CLR 21 21 100% 75.77 0.0
04 00:35 Calm 16.09 Fair CLR 21 21 100% 75.77 0.0
04 00:15 Calm 16.09 Fair CLR 22 22 100% 75.74 0.0
03 23:55 S 7 16.09 Fair CLR 23 23 100% 75.74 0.0
03 23:35 S 7 16.09 Fair CLR 23 22 94% 75.72 0.0
03 23:15 S 9 16.09 Fair CLR 23 22 94% 75.72 0.0
03 22:55 S 11 16.09 Fair CLR 24 22 89% 24 75.72 0.0
03 22:35 S 6 16.09 Fair CLR 24 22 89% 24 75.72 0.0
03 22:15 S 7 16.09 Fair CLR 24 22 89% 24 75.69 0.0
03 21:55 S 11 16.09 Fair CLR 24 22 89% 24 75.69 0.0
03 21:35 S 13 16.09 Fair CLR 24 22 89% 24 75.67 0.0
03 21:15 S 15 16.09 Fair CLR 26 21 74% 27 75.67 0.0
03 20:55 S 15 16.09 Fair CLR 27 21 70% 29 75.64 0.0
03 20:35 S 15 16.09 Fair CLR 27 21 70% 29 75.64 0.0
03 20:15 SE 11 16.09 Fair CLR 27 22 74% 29 75.62 0.0
03 19:55 S 9 16.09 Fair CLR 28 22 70% 31 75.59 0.0
03 19:35 S 9 16.09 Fair CLR 29 22 66% 32 75.59 0.0
03 19:15 S 13 16.09 Fair CLR 30 22 62% 33 75.59 0.0
03 18:55 S 17 16.09 Fair CLR 31 22 59% 35 75.59 0.0
03 18:35 S 13 16.09 Fair CLR 32 22 55% 36 75.59 0.0
03 18:15 S 19 16.09 Fair CLR 32 22 55% 36 75.57 0.0
03 17:55 S 19 16.09 Fair CLR 32 22 55% 36 75.57 0.0
03 17:35 S 19 16.09 Fair CLR 32 22 55% 36 75.57 0.0
03 17:15 S 22 16.09 Fair CLR 32 21 52% 35 75.57 0.0
03 16:55 S 20 16.09 Fair CLR 32 20 49% 34 75.57 0.0
03 16:35 S 22 G 31 16.09 Fair CLR 32 19 46% 33 75.57 0.0
03 16:15 SW 24 G 33 16.09 Fair CLR 32 18 43% 33 75.57 0.0
03 15:55 S 26 16.09 Fair CLR 31 20 52% 33 75.57 0.0
03 15:35 S 24 G 33 16.09 Fair CLR 32 21 52% 35 75.54 0.0
03 15:15 S 20 16.09 Fair CLR 33 20 46% 35 75.54 0.0
03 14:55 S 13 16.09 Fair CLR 32 23 59% 37 75.54 0.0
03 14:35 S 17 16.09 Fair CLR 31 23 62% 35 75.57 0.0
03 14:15 S 22 16.09 Fair CLR 30 23 66% 34 75.59 0.0
03 13:35 S 28 16.09 Fair CLR 29 22 66% 32 75.59 0.0
03 13:15 S 33 16.09 Fair and Breezy CLR 31 23 62% 35 75.62 0.0
03 12:55 S 13 16.09 Fair CLR 29 22 66% 32 75.59 0.0
03 12:35 SE 15 16.09 Fair CLR 28 22 70% 31 75.57 0.0
03 12:15 SE 13 16.09 Fair CLR 29 23 70% 33 75.57 0.0
03 11:55 SE 17 G 26 16.09 Fair CLR 28 23 74% 31 75.59 0.0
03 11:35 E 13 16.09 Fair CLR 27 23 79% 30 75.59 0.0
03 11:15 SE 7 16.09 A Few Clouds FEW110 26 23 84% 28 75.64 0.0
03 10:55 S 9 16.09 Fair CLR 27 22 74% 29 75.64 0.0
03 10:35 Calm 16.09 Fair CLR 26 22 79% 28 75.62 0.0
03 10:15 S 9 16.09 A Few Clouds FEW120 26 22 79% 28 75.62 0.0
03 09:55 S 9 16.09 Partly Cloudy SCT120 25 22 83% 26 75.59 0.0
03 09:35 S 15 16.09 Fair CLR 25 22 83% 26 75.59 0.0
03 09:15 S 15 16.09 Fair CLR 25 22 83% 26 75.62 0.0
03 08:55 S 17 16.09 Fair CLR 24 22 89% 24 75.62 0.0
03 08:35 S 15 16.09 Fair CLR 23 23 100% 75.62 0.0
03 08:15 S 13 16.09 Fair CLR 23 23 100% 75.62 0.0
03 07:55 S 15 16.09 Fair CLR 22 22 100% 75.59 0.0
03 07:35 S 15 16.09 Fair CLR 22 22 100% 75.57 0.0
03 07:15 S 19 16.09 Fair CLR 22 22 100% 75.57 0.0
03 06:55 SE 11 16.09 Fair CLR 22 22 100% 75.57 0.0
03 06:35 SE 9 16.09 Fair CLR 22 22 100% 75.57 0.0
03 06:15 S 11 16.09 Fair CLR 22 22 100% 75.59 0.0
03 05:55 S 11 16.09 Fair CLR 22 22 100% 75.59 0.0
03 05:35 SE 7 16.09 Fair CLR 22 22 100% 75.59 0.0
03 05:15 SE 11 16.09 Fair CLR 23 23 100% 75.59 0.0
03 04:55 SE 11 16.09 Fair CLR 22 22 100% 75.59 0.0
03 04:35 SE 6 16.09 Fair CLR 23 23 100% 75.62 0.0
03 04:15 SE 7 16.09 Fair CLR 23 23 100% 75.62 0.0
03 03:55 SE 9 16.09 Fair CLR 23 23 100% 75.62 0.0
03 03:35 SE 9 16.09 Fair CLR 22 22 100% 75.62 0.0
03 03:15 SE 7 16.09 Fair CLR 21 21 100% 75.62 0.0
03 02:55 E 6 16.09 Fair CLR 20 20 100% 75.62 0.0
03 02:35 E 7 16.09 Fair CLR 21 21 100% 75.64 0.0
03 02:15 E 6 16.09 Fair CLR 21 21 100% 75.67 0.0
03 01:55 E 7 16.09 Fair CLR 21 21 100% 75.69 0.0
03 01:35 E 7 16.09 Fair CLR 21 21 100% 75.69 0.0
03 01:15 E 9 16.09 Fair CLR 22 22 100% 75.72 0.0
03 00:55 NE 9 16.09 Fair CLR 22 22 100% 75.72 0.0
03 00:35 NE 7 16.09 Fair CLR 23 23 100% 75.72 0.0
03 00:15 Calm 16.09 Fair CLR 24 24 100% 23 75.72 0.0
02 23:55 SE 11 16.09 Fair CLR 24 24 100% 23 75.74 0.0
02 23:35 SE 11 16.09 Fair CLR 24 24 100% 23 75.74 0.0
02 23:15 SE 9 16.09 Fair CLR 24 24 100% 23 75.74 0.0
02 22:35 SE 13 16.09 Fair CLR 23 23 100% 75.77 0.0
02 22:15 SE 9 16.09 Fair CLR 23 23 100% 75.77 0.0
02 21:55 E 13 16.09 Fair CLR 23 23 100% 75.77 0.0
02 21:35 E 9 16.09 Fair CLR 23 23 100% 75.77 0.0
02 21:15 E 7 16.09 Fair CLR 24 24 100% 23 75.77 0.0
02 20:55 E 9 16.09 Fair CLR 24 24 100% 23 75.74 0.0
02 20:35 SE 11 16.09 Fair CLR 25 24 94% 26 75.74 0.0
02 20:15 SE 11 16.09 Fair CLR 26 24 89% 28 75.72 0.0
02 19:55 SE 11 16.09 Fair CLR 27 23 79% 30 75.72 0.0
02 19:35 SE 9 16.09 Fair CLR 28 23 74% 31 75.72 0.0
02 19:15 SE 11 16.09 Fair CLR 29 22 66% 32 75.72 0.0
02 18:55 SE 11 16.09 Fair CLR 30 22 62% 33 75.72 0.0
02 18:35 SE 13 16.09 Fair CLR 30 22 62% 33 75.72 0.0
02 18:15 SE 9 16.09 Fair CLR 31 22 59% 35 75.72 0.0
02 17:55 SE 15 16.09 Fair CLR 31 22 59% 35 75.72 0.0
02 17:35 SE 13 16.09 Fair CLR 31 22 59% 35 75.72 0.0
02 17:15 SE 17 16.09 Fair CLR 31 22 59% 35 75.72 0.0
02 16:55 SE 17 16.09 Fair CLR 31 22 59% 35 75.72 0.0
02 16:35 SE 19 16.09 Fair CLR 31 22 59% 35 75.74 0.0
02 16:15 SE 15 16.09 Fair CLR 31 22 59% 35 75.74 0.0
02 15:55 SE 20 16.09 Fair CLR 31 22 59% 35 75.77 0.0
02 15:35 SE 20 16.09 Fair CLR 31 22 59% 35 75.77 0.0
02 15:15 SE 19 16.09 Fair CLR 31 22 59% 35 75.77 0.0
02 14:55 SE 19 G 28 16.09 Fair CLR 31 21 55% 34 75.79 0.0
02 14:35 SE 19 16.09 Fair CLR 31 21 55% 34 75.79 0.0
02 14:15 SE 15 G 24 16.09 Fair CLR 31 21 55% 34 75.79 0.0
02 13:55 S 17 16.09 Fair CLR 30 21 59% 33 75.82 0.0
02 13:35 S 15 16.09 Fair CLR 30 21 59% 33 75.84 0.0
02 13:15 SE 13 16.09 Fair CLR 29 21 62% 31 75.84 0.0
02 12:55 SE 17 G 28 16.09 Fair CLR 29 21 62% 31 75.87 0.0
02 12:35 SE 22 16.09 Fair CLR 28 21 66% 30 75.9 0.0
02 12:15 SE 19 16.09 Fair CLR 28 21 66% 30 75.9 0.0
02 11:55 SE 19 16.09 Fair CLR 27 22 74% 29 75.92 0.0
02 11:35 E 9 16.09 Fair CLR 26 23 84% 28 75.92 0.0
02 11:15 E 13 16.09 Fair CLR 25 22 83% 26 75.92 0.0
02 10:55 NE 13 16.09 Fair CLR 24 22 89% 24 75.95 0.0
02 10:35 E 13 16.09 Fair CLR 24 22 89% 24 75.95 0.0
02 10:15 E 7 16.09 Fair CLR 24 22 89% 24 75.95 0.0
02 09:55 SE 15 16.09 A Few Clouds FEW055 22 21 94% 75.95 0.0
02 09:35 SE 15 16.09 Mostly Cloudy BKN055 20 20 100% 75.95 0.0
02 09:15 E 17 16.09 Fair CLR 20 20 100% 76 0.0
Date Time (cdt) Wind (kph) Vis. (km) Weather Sky Cond. Air Dwpt Max. Min. Relative Humidity Wind Chill (°C) Heat Index (°C) altimeter (cm) sea level (mb) 1 hr 3 hr 6 hr
6 hour
Temperature (ºC) Pressure Precipitation (cm)